Location: Nickerson Gardens
(33.9320°N, 118.2484°W)
Time: 05:50:30
(UTC+00:00)

N. Korean satellite - Pass Details

Date: 25 January 2021
Orbit: 451 x 502 km, 97.2° (Epoch: 08 March)

Event Time Altitude Azimuth Distance (km) Brightness Sun altitude
Rises 12:37:41 0° 26° (NNE) 2,488 10.4 -28.3°
Reaches altitude 10° 12:40:02 10° 41° (NE) 1,602 9.6 -27.8°
Maximum altitude 12:42:50 23° 96° (E) 1,004 8.8 -27.2°
Drops below altitude 10° 12:45:36 10° 151° (SSE) 1,580 9.5 -26.6°
Sets 12:47:53 0° 166° (SSE) 2,444 10.4 -26.1°
